Find Starlink 5722

NORAD ID: 55610 Int'l Des: 2023-020 Owner: SPXS Country: US Constellation: starlink operational
LEOCIRCULAR

リアルタイム位置

3D地球を読み込み中...

Starlink 5722について

説明を読み込み中...

次回通過

Passes for default location (London). Set your location on the main map for personalized predictions.

高度履歴

Loading altitude history...

軌道要素

1 55610U 23020AT 26104.17798146 -.00000266 00000-0 -14632-6 0 9998
2 55610 43.0006 154.0675 0001045 273.0826 86.9906 15.27574318174461
Epoch: Apr 14, 2026 • Age: 7 hours

現在のステータス

高度 482.4 km
速度 7.63 km/s
衛星直下点 12.30°N, 52.48°W
打ち上げ日 Feb 12, 2023
運用期間 3.1 years
タイプ internet

技術仕様

分類 Payload
質量 305.00 kg
乾燥質量 290.00 kg
総質量 305.00 kg
長さ 0.20 m
直径 2.80 m
スパン 9.00 m
形状 Box + pan
製造者 SPXS
バスタイプ Starlink
フェーズステータス In Orbit
所有者/国 SPXS/US

Most Searched